GALAXY 7

导读

GALAXY 7是美国于1992年10月28日发射的通信卫星,隶属于国际卫星组织Galaxy系列,旨在为北美地区提供广播电视与通信转发服务,作为该系列的早期商用通信卫星,它进一步拓展了美国在卫星通信领域的覆盖能力,服务于跨区域电视转播与固定通信业务,服役期间保障了稳定的空间通信传输,是九十年代民用卫星通信发展的典型代表。

Basic Information
目录编号:
22205
目录名称:
GALAXY 7
国际标识:
1992-072A
轨道中心:
EARTH
卫星名称:
GALAXY 7
卫星全名:
--
卫星状态:
在轨 (已飞行12325 天)
发射日期:
1992-10-28 UTC
国别 :
美国 (US)
星等 :
--
Orbit Information
数据来源 国际轨道数据 AOE轨道数据
星历时间 2026-07-27T20:56:54+0800
10小时前
查看轨道信息
2026-07-27T08:00:00+0800
23小时前
查看轨道信息
半长轴 42324.432km 42324.517km
偏心率 0.0005726 0.0005796
轨道倾角 14.526° 14.526°
近地点辐角 55.251° 56.632°
升交点赤经 2.973° 2.976°
平近点角 113.908° 278.870°
近地点 35922.06km 35921.848km
远地点 35970.53km 35970.912km
周期 1444.263分钟 1444.268分钟
每日圈数 0.997048 0.997045
Detailed Information
使用方式:
暂无
2D Orbit Map
3D Orbit Map
Orbit Altitude Analysis Chart
Orbit Inclination Analysis Chart
Orbit Comprehensive Analysis Chart
View Comprehensive Chart